User: anonymous   Login
Location: UBC Liquid-Mirror Observatory
(49.2876°N, 122.5728°W)
Time: 12:54:03
(UTC-07:00)
Language:

Cosmos 1743 Rocket - Orbit

View from above orbital plane
View from above orbital plane
View from above satellite
View from above satellite

Ground track
Ground track

The orbit data is extracted from the following two-line orbital elements,

1 16720U 86034B   17263.18279737  .00000098  00000-0  90153-5 0  9990
2 16720  82.5556 152.9458 0021051 144.5289  16.9927 14.83303394693342
Epoch (UTC): 20 September 2017 04:23:13
Eccentricity: 0.0021051
inclination: 82.5556°
perigee height: 604 km
apogee height: 633 km
right ascension of ascending node: 152.9458°
argument of perigee: 144.5289°
revolutions per day: 14.83303394
mean anomaly at epoch: 16.9927°
orbit number at epoch: 69334

The dashed part of the orbit path shows where the satellite is in the earth's shadow,  

DLR